TimePDT,TemperatureF,Dew PointF,Humidity,Sea Level PressureIn,VisibilityMPH,Wind Direction,Wind SpeedMPH,Gust SpeedMPH,PrecipitationIn,Events,Conditions,WindDirDegrees,DateUTC
12:53 AM,70.0,57.9,65,29.81,10.0,SW,5.8,-,N/A,,Clear,220,2013-09-10 07:53:00
1:53 AM,68.0,57.9,70,29.83,10.0,South,4.6,-,N/A,,Clear,190,2013-09-10 08:53:00
2:53 AM,66.9,57.9,73,29.84,10.0,South,4.6,-,N/A,,Clear,190,2013-09-10 09:53:00
3:31 AM,68.0,57.2,68,29.84,10.0,Calm,Calm,-,N/A,,Mostly Cloudy,0,2013-09-10 10:31:00
3:53 AM,69.1,57.9,68,29.84,10.0,Calm,Calm,-,N/A,,Overcast,0,2013-09-10 10:53:00
4:53 AM,70.0,57.9,65,29.85,10.0,Calm,Calm,-,N/A,,Overcast,0,2013-09-10 11:53:00
5:18 AM,71.6,57.2,60,29.85,10.0,Calm,Calm,-,N/A,,Overcast,0,2013-09-10 12:18:00
5:53 AM,71.1,57.0,61,29.86,10.0,Calm,Calm,-,N/A,,Overcast,0,2013-09-10 12:53:00
6:53 AM,71.1,57.0,61,29.87,10.0,SW,3.5,-,N/A,,Overcast,220,2013-09-10 13:53:00
7:53 AM,72.0,57.9,61,29.88,10.0,Calm,Calm,-,N/A,,Overcast,0,2013-09-10 14:53:00
8:53 AM,73.0,57.9,59,29.90,10.0,SSW,3.5,-,N/A,,Overcast,200,2013-09-10 15:53:00
9:42 AM,75.2,57.2,53,29.90,10.0,Calm,Calm,-,N/A,,Mostly Cloudy,0,2013-09-10 16:42:00
9:53 AM,75.0,57.9,55,29.90,10.0,Calm,Calm,-,N/A,,Scattered Clouds,0,2013-09-10 16:53:00
10:53 AM,77.0,57.9,52,29.90,10.0,SSW,4.6,-,N/A,,Scattered Clouds,210,2013-09-10 17:53:00
11:53 AM,79.0,57.9,48,29.89,10.0,SW,8.1,-,N/A,,Scattered Clouds,230,2013-09-10 18:53:00
12:53 PM,78.1,57.9,50,29.89,10.0,WSW,5.8,-,N/A,,Scattered Clouds,240,2013-09-10 19:53:00
1:53 PM,79.0,57.9,48,29.87,10.0,SW,9.2,-,N/A,,Scattered Clouds,230,2013-09-10 20:53:00
2:53 PM,77.0,57.0,50,29.87,10.0,Variable,6.9,-,N/A,,Scattered Clouds,0,2013-09-10 21:53:00
3:53 PM,75.9,57.0,52,29.86,10.0,SW,11.5,-,N/A,,Partly Cloudy,220,2013-09-10 22:53:00
4:53 PM,73.9,57.0,55,29.86,10.0,WSW,9.2,-,N/A,,Scattered Clouds,240,2013-09-10 23:53:00
5:53 PM,72.0,57.0,59,29.87,10.0,SW,9.2,-,N/A,,Partly Cloudy,220,2013-09-11 00:53:00
6:53 PM,70.0,57.0,63,29.89,10.0,SW,6.9,-,N/A,,Scattered Clouds,220,2013-09-11 01:53:00
7:53 PM,69.1,57.0,65,29.91,10.0,West,5.8,-,N/A,,Clear,260,2013-09-11 02:53:00
8:53 PM,69.1,57.0,65,29.93,10.0,Variable,3.5,-,N/A,,Clear,0,2013-09-11 03:53:00
9:53 PM,68.0,57.0,68,29.93,10.0,WSW,3.5,-,N/A,,Clear,250,2013-09-11 04:53:00
10:45 PM,68.0,57.2,68,29.94,10.0,Calm,Calm,-,N/A,,Mostly Cloudy,0,2013-09-11 05:45:00
10:53 PM,66.9,57.0,70,29.94,10.0,Calm,Calm,-,N/A,,Mostly Cloudy,0,2013-09-11 05:53:00
11:18 PM,68.0,57.2,68,29.94,10.0,Calm,Calm,-,N/A,,Scattered Clouds,0,2013-09-11 06:18:00
11:53 PM,66.9,57.9,73,29.95,10.0,SSW,3.5,-,N/A,,Mostly Cloudy,210,2013-09-11 06:53:00